Location: Gobelsdorf
(48.6667°N, 15.5333°E)
Time: 01:34:59
(UTC+00:00)

Daily predictions for brighter satellites

Satellite Brightness Start Highest point End
(mag) Time Altitude Azimuth Time Altitude Azimuth Time Altitude Azimuth
CENTAUR R/B 3.7 02:14:21 53° ESE 02:14:21 53° ESE 02:20:52 10° SE
ATLAS 2AS CENTAUR R/B 4.4 02:27:57 20° SSE 02:32:14 33° ESE 02:39:01 10° NE
BREEZE-M DEB (TANK) 4.5 02:45:10 63° S 02:46:04 67° SE 03:11:28 10° ENE
Lacrosse 5 3.7 02:52:47 27° ESE 02:52:47 27° ESE 02:56:25 10° ENE
ATLAS CENTAUR R/B 4.3 02:55:55 13° ENE 02:55:55 13° ENE 02:56:39 10° E
Cosmos 2263 Rocket 2.9 03:01:26 49° ENE 03:01:26 49° ENE 03:05:49 10° NNE
SJ 16-02 3.1 03:08:47 30° ENE 03:08:47 30° ENE 03:11:52 10° NE
FENGYUN 3A 4.3 03:12:30 10° NNE 03:17:48 52° E 03:23:03 10° S
Cosmos 1709 Rocket 4.2 03:16:01 10° S 03:22:21 72° E 03:28:43 10° NNE
CZ-4C R/B 3.6 03:25:49 16° S 03:29:09 33° ESE 03:34:15 10° NE
COSMO-SKYMED 1 3.8 03:25:35 10° SE 03:29:37 39° ENE 03:30:47 32° NNE
BREEZE-M DEB (TANK) 4.1 03:30:34 61° W 03:31:56 81° SSW 03:35:52 10° ESE
Meteor 2-3 Rocket 4.3 03:26:22 10° S 03:31:58 58° E 03:37:39 10° NNE
ATLAS 3B R/B 2.9 03:30:35 43° NNW 03:32:54 68° NE 03:40:02 10° SE
USA 308 4.4 03:35:04 32° NE 03:35:04 32° NE 03:37:51 10° ENE
Cosmos 1943 4.0 03:36:00 38° S 03:36:00 38° S 03:39:33 10° S
Lacrosse 4 Rocket 3.0 03:38:11 28° SSE 03:38:11 28° SSE 03:40:20 10° SSE
EXPRESS MD2 3.6 03:53:25 65° NE 03:53:25 65° NE 03:58:31 10° E
ALOS 2.1 03:48:49 10° NNE 03:53:17 77° NNW 03:53:17 77° NNW
Cosmos 923 Rocket 3.9 03:53:37 67° WNW 03:54:11 75° WSW 03:59:29 10° SSE
deb Chang Zheng 4 3.9 03:50:26 10° NNE 03:54:46 65° ESE 03:59:05 10° S
Cosmos 2227 Rocket 4.2 03:57:13 14° N 03:57:13 14° N 03:58:40 10° N
METEOR-M 4.0 03:52:51 10° NNE 03:58:14 88° ESE 04:03:35 10° SSW
Cosmos 2344 4.3 03:53:01 26° NW 03:59:20 86° NE 04:12:17 10° SE
Cosmos 2227 4.3 04:01:36 51° NW 04:01:36 51° NW 04:07:03 10° NNE
CENTAUR R/B 3.6 04:01:35 37° W 04:02:35 38° WSW 04:10:28 10° S
USA 305 3.7 04:02:46 40° N 04:02:46 40° N 04:06:50 10° ENE
NOSS 3-4 (A) 3.3 04:00:50 42° WSW 04:02:57 77° NW 04:09:24 10° NE
NOSS 3-4 (C) 3.3 04:00:54 41° SW 04:03:05 77° NW 04:09:32 10° NE
ARGOS Delta rocket 3.9 03:59:29 10° N 04:04:34 58° WNW 04:04:43 58° W
SAR-Lupe-1 4.2 04:02:37 10° SSE 04:05:49 70° SE 04:05:49 70° SE
Meteor 1-31 Rocket 3.3 04:02:19 10° NNE 04:05:08 46° N 04:05:08 46° N
Cosmos 2184 Rocket 4.5 04:03:32 10° S 04:09:45 63° E 04:16:04 10° NNE
Cosmos 158 Rocket 3.9 04:10:38 54° W 04:10:52 54° WSW 04:15:43 10° S
Cosmos 1812 4.0 04:07:44 11° N 04:11:12 40° ENE 04:14:50 10° SE
USA 306 3.6 04:10:52 39° N 04:11:13 40° N 04:15:18 10° ENE
Cosmos 2228 Rocket 4.2 04:07:02 10° N 04:11:17 43° ENE 04:15:29 10° SSE
Cosmos 1515 Rocket 3.5 04:09:36 24° N 04:12:16 87° E 04:16:44 10° S
Meteor 2-17 Rocket 4.3 04:07:59 10° S 04:14:02 87° W 04:20:09 10° N
SL-4 R/B 2.1 04:15:03 54° N 04:15:06 54° N 04:18:47 10° ENE
Cosmos 1151 Rocket 4.1 04:17:01 28° SSW 04:17:01 28° SSW 04:19:20 10° SSW
Cosmos 1782 2.7 04:16:34 65° WNW 04:16:46 66° W 04:20:46 10° S
PSLV R/B 3.9 04:12:52 10° SSE 04:17:01 84° ENE 04:19:24 25° NNW
SKYMED 2 3.4 04:13:17 10° S 04:17:37 72° WSW 04:19:24 35° NNW
Cosmos 1844 Rocket 3.3 04:13:06 10° S 04:18:37 57° ESE 04:24:11 10° NE
ERS-2 4.4 04:18:43 10° SSW 04:19:17 13° SSW 04:19:17 13° SSW
Cosmos 1680 Rocket 3.5 04:20:03 35° NW 04:22:08 58° WSW 04:27:19 10° S
SJ-12 3.7 04:18:29 10° NNE 04:22:34 81° WNW 04:26:37 10° SSW
ATLAS 2AS CENTAUR R/B 3.0 04:15:31 13° SW 04:22:44 77° NW 04:30:35 10° NE
FALCON 9 DEB 3.0 04:24:40 64° S 04:24:57 69° SSE 04:28:09 10° ENE
FALCON 9 DEB 3.9 04:26:37 39° N 04:26:51 39° N 04:30:09 10° ENE
Cosmos 2297 Rocket 4.3 04:30:30 10° NNW 04:30:30 10° NNW 04:31:03 10° NNW
ATLAS 5 CENTAUR R/B 3.1 04:31:19 24° NNW 04:31:19 24° NNW 04:33:01 10° NNE
Cosmos 1844 4.3 04:26:52 10° S 04:32:17 58° ESE 04:37:47 10° NE
RESURS DK-1 2.3 04:28:38 10° SSW 04:32:47 85° ESE 04:36:59 10° NNE
CRYOSAT 2 4.5 04:28:14 10° SSW 04:32:58 51° W 04:37:43 10° NNW
ATLAS CENTAUR R/B 1.1 04:32:06 47° WNW 04:33:03 69° SW 04:36:56 10° SSE
ADEOS 3.8 04:28:12 10° N 04:33:10 46° WNW 04:38:08 10° SW
Lacrosse 5 1.8 04:32:03 28° WSW 04:34:45 75° NNW 04:39:51 10° NE
Cosmos 1328 Rocket 4.3 04:35:39 32° WSW 04:35:39 32° WSW 04:39:09 10° SSW
Meteor PRIRODA 3.5 04:31:46 10° NNE 04:35:32 82° WNW 04:39:15 10° SSW
Cosmos 1500 Rocket 3.6 04:32:42 10° S 04:37:01 81° E 04:41:22 10° NNE
Meteor 2-6 Rocket 4.0 04:31:36 10° NNW 04:37:01 83° W 04:42:28 10° S
ERBS 3.8 04:38:12 23° N 04:38:12 23° N 04:40:45 10° NE
H-2A R/B 3.1 04:35:32 10° NNE 04:39:27 69° ESE 04:43:18 10° S
Cosmos 1437 Rocket 3.4 04:37:18 10° N 04:41:02 53° ENE 04:44:43 10° SSE
Cosmos 2112 Rocket 4.3 04:38:53 24° NW 04:41:50 47° WSW 04:46:55 10° S
Okean O Rocket 4.0 04:39:16 10° NE 04:43:02 26° E 04:46:47 10° SSE
Cosmos 2263 Rocket 3.1 04:43:11 26° WNW 04:44:33 29° NW 04:49:29 10° NNE
Gbstr 26 Del rocket 3.5 04:43:34 30° WSW 04:44:34 35° SW 04:48:10 10° SSE
SJ 16-02 2.1 04:45:52 29° WNW 04:46:29 30° WNW 04:50:26 10° N
Nadezhda 3 Rocket 4.0 04:43:04 10° N 04:49:25 90° W 04:55:40 10° S
Cosmos 1898 Rocket 3.5 04:48:39 10° SW 04:53:54 62° WNW 04:59:14 10° NNE
CZ-2C R/B 3.6 04:50:11 10° SE 04:55:27 50° ENE 05:00:37 10° N
FENGYUN 3A 4.5 04:53:20 10° N 04:57:51 28° WNW 05:02:20 10° WSW
Sich 1 3.9 04:53:37 10° S 04:57:55 53° E 05:02:16 10° NNE
FALCON 9 DEB 2.8 04:56:35 26° WSW 04:58:13 76° NNW 05:01:26 10° ENE
FALCON 9 DEB 2.8 04:56:45 27° WSW 04:58:19 73° NNW 05:01:34 10° ENE
Envisat 3.3 04:53:31 10° NNE 04:58:37 71° ESE 05:03:41 10° S
SJ-7 4.3 04:56:01 10° NNE 05:00:05 88° WNW 05:04:12 10° SSW
Cosmos 1743 Rocket 3.6 04:56:37 10° SSW 05:01:00 57° WNW 05:05:26 10° N
H-2A R/B 2.8 04:58:14 10° NNE 05:02:04 62° ESE 05:05:51 10° S
Cosmos 1408 Rocket 4.3 04:59:12 10° SW 05:03:10 31° WNW 05:07:09 10° N
Cosmos 2082 Rocket 3.8 04:59:28 10° NNW 05:04:29 30° NE 05:09:29 10° ESE
COSMO-SKYMED 1 3.6 05:02:20 10° SSW 05:05:54 25° W 05:07:59 17° NW
NOSS 7 (H) 4.0 05:02:41 10° SW 05:05:57 70° NW 05:08:53 10° NE
CZ-4B R/B 4.3 05:01:25 10° NNE 05:06:36 48° E 05:11:49 10° S
NOSS 7 (E) 4.4 05:03:03 10° SW 05:06:44 78° SE 05:09:50 10° NE
USA 307 3.4 05:05:08 19° NW 05:07:59 49° NNE 05:12:11 10° E
Cosmos 1937 Rocket 3.5 05:05:54 10° SW 05:10:59 60° WNW 05:16:09 10° NNE
USA 308 3.4 05:11:14 17° NW 05:14:21 51° NNE 05:18:34 10° E
Cosmos 1833 Rocket 3.4 05:09:28 10° NNW 05:15:00 53° NE 05:20:29 10° SE
MOS 1 Rocket 3.6 05:11:29 10° S 05:16:09 49° W 05:21:09 10° NNW
CZ-4B R/B 3.8 05:12:41 10° N 05:16:42 32° WNW 05:20:38 10° SW
Cosmos 2154 Rocket 4.0 05:10:42 10° SSW 05:16:52 66° WNW 05:23:09 10° N
CZ-4C R/B 2.4 05:12:17 10° WSW 05:17:20 52° NW 05:23:27 10° NE
Meteor 1-27 Rocket 3.8 05:12:47 10° NNW 05:18:34 77° W 05:24:24 10° S
Cosmos 1689 Rocket 4.1 05:17:28 10° WSW 05:18:12 12° WSW 05:18:12 12° WSW
Cosmos 1805 Rocket 3.5 05:15:44 10° SSW 05:20:10 71° W 05:24:39 10° N
Meteor 1-10 Rocket 4.5 05:15:10 10° NNW 05:20:28 47° W 05:25:48 10° SSW
FALCON 9 DEB 3.0 05:18:32 15° W 05:21:05 58° NNW 05:24:18 10° ENE
ATLAS 3B R/B 3.5 05:17:52 13° WNW 05:23:15 34° WSW 05:29:34 10° S
Aureole 2 Rocket 1.9 05:22:21 10° SW 05:24:48 42° WNW 05:27:16 10° N
COSMOS 2406 3.5 05:19:20 10° NNW 05:25:07 75° ENE 05:30:53 10° SSE
Cosmos 1666 Rocket 3.9 05:22:58 10° S 05:27:15 68° E 05:31:35 10° NNE
Cosmos 1048 Rocket 4.1 05:22:03 10° NNW 05:27:23 83° ENE 05:32:35 10° SSE
YAOGAN 6 2.6 05:24:13 10° N 05:27:40 52° WNW 05:31:03 10° SSW
Cosmos 1862 4.0 05:24:10 10° SW 05:27:51 33° WNW 05:31:35 10° N
Genesis I 3.7 05:26:19 10° WSW 05:29:54 37° NW 05:33:32 10° NNE
ALOS 4.0 05:28:09 10° NNW 05:30:10 13° NW 05:31:45 11° WNW
DMSP B5D2-2 4.3 05:26:03 10° SSE 05:31:16 76° ENE 05:36:29 10° NNW
Cosmos 2341 Rocket 4.0 05:26:36 10° S 05:32:49 88° W 05:39:06 10° N
Cosmos 2278 Rocket 3.5 05:28:44 10° S 05:34:04 45° ESE 05:39:28 10° NE
PSLV R/B 4.3 05:32:47 10° N 05:36:23 36° WNW 05:39:52 10° SW
SL-8 Rocket 4.1 05:34:17 10° S 05:40:25 82° E 05:46:38 10° N
USA 305 3.1 05:38:56 10° WNW 05:43:14 65° NNE 05:47:31 10° ESE
BREEZE M DEB (TANK) 2.8 05:37:54 10° WSW 05:43:33 55° SSE 05:45:57 10° E
Cosmos 405 Rocket 3.7 05:40:45 10° SW 05:43:48 24° WNW 05:46:56 10° NNW
Okean 1 4.2 05:39:58 10° N 05:43:56 51° ENE 05:47:54 10° SSE
NOAA 12 4.1 05:40:10 10° NNE 05:45:29 82° WNW 05:50:44 10° SSW
Cosmos 1812 4.2 05:44:05 10° NW 05:46:41 18° W 05:49:17 10° SW
Cosmos 2228 Rocket 4.4 05:45:53 10° NW 05:49:11 21° W 05:52:28 10° SW
USA 306 3.1 05:47:22 10° WNW 05:51:41 71° NNE 05:55:59 10° ESE
Cosmos 1633 Rocket 3.1 05:49:17 10° SSW 05:53:42 79° W 05:58:10 10° N
NOSS 3-4 (A) 4.5 05:49:39 10° W 05:54:54 28° NNW 06:00:34 10° NE
SL-4 R/B 1.8 05:51:07 10° WNW 05:54:58 73° NNE 05:58:33 10° ESE
NOSS 3-4 (C) 4.5 05:49:46 10° W 05:55:02 29° NNW 06:00:42 10° NE
USA 234 3.4 05:49:55 10° NE 05:56:29 83° SE 06:03:03 10° SW
